RH
21 19 17 16 14 13 12 12 11 11 11 10 10 10 10 10 10 9 9 9 9 9 9 9 9 9 9 10 10 10 10 10 10 11 11 11 11 12 12 12 12 12 12 12 11 9 8 7 6 6 6 6 6 6 6 7 7 7 7 7 7 8 8 8 9 9 9 9 9 9 9 8 8 8 8 8 9 11 13 15 17 18 19 19 20 21
20 18 16 15 14 13 12 12 11 11 11 11 11 10 10 10 10 10 10 10 10 10 10 10 10 10 10 10 11 11 11 11 11 12 12 13 13 13 13 13 13 12 11 10 8 7 6 5 5 6 6 6 7 7 7 7 7 7 7 7 8 8 8 8 9 9 9 8 8 8 8 8 8 8 9 9 11 14 16 18 19 19 20 21 23 24
19 17 16 15 14 13 13 12 12 11 11 11 11 10 10 10 10 10 10 10 10 10 11 11 11 11 11 11 12 12 12 12 13 13 13 13 13 13 13 12 11 10 8 7 6 5 5 6 6 6 7 7 7 8 8 8 8 8 8 8 8 8 8 8 8 8 8 8 8 8 8 8 8 9 11 12 14 16 18 18 19 20 21 22 24 25
19 18 17 15 14 14 13 13 12 11 11 11 11 11 11 11 11 10 10 11 11 11 11 12 12 12 12 12 13 13 13 14 14 14 14 14 13 13 11 10 8 7 6 5 5 5 6 6 7 7 7 8 8 8 8 8 8 8 8 8 8 8 8 8 8 8 8 8 8 9 9 9 10 11 12 12 15 17 18 19 20 21 22 23 25 26
19 18 17 16 15 14 14 13 12 12 11 11 11 11 11 11 11 11 11 12 12 12 12 13 13 13 13 14 14 14 14 15 14 14 14 13 12 10 9 7 6 5 5 5 6 6 7 7 7 8 8 8 9 9 9 9 9 9 9 9 9 8 8 8 8 8 9 9 9 9 10 10 12 13 12 15 17 18 19 20 21 22 23 24 25 26
19 18 17 16 15 15 14 13 12 12 12 12 11 12 12 12 12 12 13 13 13 14 14 14 14 14 15 15 15 15 15 15 14 14 13 11 10 8 6 5 5 5 5 6 7 7 7 8 8 9 9 9 10 10 10 10 10 10 9 9 9 9 9 9 9 9 9 9 10 10 10 12 14 15 15 17 18 19 20 21 22 23 24 25 26 27
19 18 17 16 15 15 14 14 14 13 13 13 13 13 13 13 14 14 14 15 15 15 15 15 15 16 16 16 16 16 15 15 13 12 11 9 8 6 5 5 5 6 6 7 7 8 8 9 9 9 10 10 10 10 10 10 10 10 10 9 9 9 9 9 9 9 9 10 10 11 12 14 16 17 17 19 20 21 22 24 25 25 25 26 27 27
19 18 17 17 16 15 15 16 16 15 15 15 14 14 15 15 16 16 16 16 16 16 17 17 17 17 18 18 17 16 15 14 12 11 9 8 6 6 5 6 6 7 7 8 8 9 9 9 10 10 11 11 11 11 11 11 10 10 10 9 9 9 9 9 9 9 10 10 11 12 14 16 17 18 20 21 22 23 24 25 26 27 28 28 28 27
20 19 18 17 17 17 17 17 17 17 16 16 16 17 17 17 18 18 18 18 18 19 19 19 19 19 19 19 18 17 15 14 12 10 8 7 7 6 7 7 7 8 8 9 9 9 10 10 10 11 11 12 12 12 12 11 11 10 10 10 10 9 9 9 9 10 10 10 12 14 16 16 18 19 22 23 23 24 25 26 27 27 28 28 27 27
20 19 18 18 18 19 19 19 19 18 18 18 18 19 20 20 21 21 21 21 21 21 21 21 21 21 21 20 18 17 16 13 11 10 8 8 8 8 8 8 9 9 9 10 10 10 11 11 11 12 12 12 12 12 12 12 11 11 10 10 10 10 10 10 10 10 11 12 14 16 17 18 19 21 23 23 23 24 25 26 27 27 27 27 27 27
20 20 19 19 20 20 21 21 21 20 20 20 21 21 23 23 24 23 23 23 23 24 24 24 24 23 22 21 19 18 16 14 12 10 9 9 9 9 10 10 10 11 11 11 11 11 12 12 12 12 13 13 13 13 13 13 12 12 11 11 11 11 11 11 11 12 13 15 16 17 18 19 20 21 22 23 23 24 25 25 26 26 27 27 27 27
22 21 21 21 21 22 22 23 23 23 22 23 24 25 26 26 26 26 26 26 26 27 27 26 25 24 23 22 20 18 17 14 13 12 11 11 11 11 12 12 12 12 13 13 12 12 12 13 13 13 14 14 15 15 14 14 14 13 13 12 12 12 12 13 13 14 16 17 17 18 19 20 21 22 22 23 24 25 25 25 26 26 27 28 28 28
23 22 23 23 23 24 25 25 26 26 26 27 28 28 28 27 28 28 29 29 30 30 29 28 26 25 23 22 20 19 17 16 14 13 13 13 13 14 14 14 14 14 14 14 13 13 13 13 13 14 15 16 16 17 16 16 15 15 14 14 14 14 14 15 15 16 17 18 19 20 21 21 22 23 23 24 25 26 26 26 26 27 28 29 29 29
25 25 25 25 26 27 27 28 28 29 29 29 29 29 29 29 30 31 32 32 32 31 30 30 28 26 23 21 20 19 18 17 16 15 15 15 15 15 15 15 15 15 14 14 14 14 13 13 14 15 17 18 19 19 18 17 16 16 15 15 15 15 16 16 17 18 19 20 21 21 22 23 24 25 25 25 26 26 27 27 27 28 29 29 30 30
28 28 27 28 29 30 30 30 30 30 30 30 31 31 31 32 33 33 33 33 32 32 32 31 29 26 23 21 20 19 19 18 17 17 17 16 16 15 16 16 15 15 14 14 14 14 14 14 15 16 18 20 20 20 19 18 17 16 16 16 16 16 17 18 18 19 19 21 22 23 24 25 26 26 27 27 27 27 27 28 28 28 28 29 29 30
30 30 30 30 30 30 30 31 31 31 31 32 32 33 33 34 34 34 33 33 33 33 32 31 30 27 23 21 19 19 19 19 19 19 19 17 16 15 16 16 16 15 14 14 14 14 15 16 17 18 20 21 21 20 19 18 17 16 16 16 16 17 18 19 19 19 20 21 22 24 26 27 28 28 29 29 29 28 28 28 28 28 28 28 28 28
30 31 31 31 31 31 31 31 32 32 33 34 34 34 34 34 34 34 34 34 33 33 32 31 29 27 24 21 20 19 19 20 19 19 18 17 16 15 15 16 16 15 15 15 15 15 16 17 18 19 20 21 21 20 19 18 17 17 17 17 17 18 19 20 20 20 20 21 22 24 25 27 27 28 29 29 30 30 29 29 29 28 28 28 28 27
30 31 31 32 32 32 31 32 33 34 34 34 35 34 34 34 34 34 34 34 33 33 32 30 29 27 25 23 20 19 19 20 20 19 18 17 16 15 16 16 16 16 15 15 16 16 17 18 18 19 20 20 21 20 19 18 18 18 17 18 18 19 20 21 21 22 22 23 24 25 26 26 27 28 28 28 29 29 30 30 29 29 28 28 28 28
30 30 31 32 32 31 32 33 34 34 35 35 35 35 35 34 34 34 35 34 33 32 31 30 28 26 24 23 21 19 19 20 20 20 19 18 16 15 16 17 17 17 16 16 17 17 17 17 18 19 20 21 21 21 20 19 18 18 18 19 19 20 22 22 23 24 24 24 25 26 26 27 28 28 28 28 28 28 28 28 27 27 27 27 28 29
28 29 29 30 31 32 33 34 35 35 35 35 35 35 34 34 34 34 34 34 33 32 30 29 28 26 23 22 20 19 18 19 20 20 20 19 17 16 16 18 18 18 18 17 16 16 17 18 19 20 21 22 22 21 20 19 19 19 19 20 21 22 24 24 25 25 26 26 27 27 27 28 28 28 28 28 28 28 28 28 27 27 26 26 26 26
28 28 28 30 32 33 34 35 35 33 33 33 34 35 34 34 33 33 34 33 32 31 30 29 27 24 22 21 20 19 18 20 21 21 21 20 19 17 17 18 18 19 18 16 16 16 18 19 20 21 22 22 22 22 21 20 20 20 20 21 23 24 25 26 27 27 27 28 28 28 29 29 29 29 29 29 29 28 29 29 28 28 28 27 27 27
27 28 30 31 33 34 35 34 33 33 32 33 34 34 34 34 34 33 33 32 32 31 29 27 25 23 21 21 19 18 18 20 21 21 22 22 20 18 17 18 18 18 17 16 17 18 19 20 21 22 22 22 22 22 21 21 21 21 22 23 24 26 27 27 28 29 29 30 30 30 30 30 30 29 29 29 29 29 30 30 31 31 31 30 30 30
29 30 32 32 32 33 33 32 32 32 33 33 34 34 34 33 33 32 31 31 30 29 27 25 23 21 21 20 19 18 19 21 22 22 22 22 20 18 16 17 18 18 17 18 18 19 21 21 21 21 22 22 22 22 22 23 23 24 24 25 27 28 29 30 30 31 32 32 32 32 32 31 31 30 30 30 30 30 31 32 33 34 34 33 33 34
29 31 31 31 32 32 32 33 33 33 33 33 33 33 32 31 31 31 31 30 29 28 27 25 23 22 20 20 20 20 20 22 22 22 22 21 20 18 17 18 19 19 19 19 20 21 22 22 22 21 21 21 22 22 23 24 25 26 27 28 29 30 31 32 33 34 34 34 34 34 34 33 32 31 31 31 31 32 33 34 35 36 36 35 36 36
29 30 30 31 32 32 33 34 33 33 33 32 32 31 31 31 30 30 30 29 29 28 27 26 24 23 22 22 22 22 21 22 22 21 21 21 20 18 17 19 20 20 20 20 21 22 23 22 22 21 21 22 22 23 24 26 27 29 30 31 32 34 35 36 37 37 37 37 37 36 35 34 33 32 32 32 32 33 35 36 37 37 37 37 37 37
30 31 32 33 33 33 34 33 33 33 33 32 32 32 31 31 31 30 30 29 29 29 29 27 26 25 23 23 23 22 21 21 21 20 20 20 20 20 19 20 21 22 22 22 22 23 23 22 22 21 22 22 23 24 25 27 29 31 33 34 36 37 39 40 40 40 40 40 39 38 37 36 35 34 33 33 33 35 36 37 39 39 39 39 39 38
31 32 33 33 33 33 33 33 33 33 33 33 33 32 32 32 31 31 30 30 30 29 29 28 27 26 25 24 23 22 21 20 20 20 20 21 21 22 22 23 23 24 24 24 23 23 23 23 22 22 22 23 24 25 27 29 31 33 35 37 39 41 43 44 44 44 44 43 43 41 40 39 37 36 35 35 35 36 38 39 40 41 41 41 40 39
32 32 33 33 34 34 34 34 34 34 34 34 34 33 33 32 32 32 31 30 30 29 29 28 28 27 26 25 23 22 21 20 20 20 21 22 23 24 24 25 25 26 26 25 24 23 22 23 23 23 23 24 25 27 28 30 32 34 37 39 42 45 46 47 47 47 47 47 46 45 44 42 41 39 38 38 38 39 40 41 42 43 44 43 42 41
33 33 34 34 35 35 35 35 35 35 35 35 34 34 34 33 33 32 31 31 30 29 28 28 28 27 26 25 24 22 22 21 21 22 24 24 25 26 26 26 27 27 27 27 25 23 22 22 23 24 25 26 27 28 29 31 33 35 38 41 43 46 48 49 49 49 50 49 49 48 47 45 44 43 42 42 42 42 43 44 46 47 47 46 44 43
35 35 35 35 35 36 36 36 36 36 36 36 35 35 35 34 33 33 32 31 30 29 29 28 27 27 26 26 25 24 23 22 23 24 25 26 26 27 27 28 28 29 29 29 28 26 24 22 23 24 26 27 28 29 31 32 35 37 39 42 44 46 48 49 50 51 51 51 51 50 49 47 46 45 45 45 45 46 46 47 49 50 49 47 45 44
37 37 37 37 37 37 37 37 37 37 37 36 36 36 36 35 34 34 33 32 31 30 29 28 28 27 27 27 27 26 25 24 24 24 25 27 28 28 28 29 29 29 30 30 30 29 28 25 23 24 26 28 29 31 32 34 36 39 41 43 45 46 47 49 50 51 52 52 52 52 50 49 48 47 47 47 48 49 50 51 52 52 51 48 47 46
38 38 38 38 38 38 38 38 38 37 37 37 36 36 36 36 35 34 33 32 32 31 30 29 29 28 28 28 28 27 25 24 24 25 26 28 29 29 29 29 30 30 30 31 31 31 31 29 26 24 26 28 30 32 34 36 39 40 42 44 46 46 47 49 51 52 53 53 54 53 52 50 49 48 48 48 49 51 52 54 54 53 52 50 48 47
38 38 38 38 38 38 38 38 38 38 37 37 37 37 36 36 35 35 34 33 32 31 31 30 29 29 28 28 27 26 25 25 25 26 28 29 30 30 30 30 30 31 31 32 32 32 33 33 31 30 29 30 31 33 35 38 40 42 44 46 47 48 48 50 51 53 54 55 55 54 53 51 49 48 48 48 50 51 54 55 55 54 53 51 49 48
39 39 39 39 39 39 39 39 39 38 38 37 37 37 37 36 36 35 34 34 33 32 31 31 30 30 29 28 27 27 26 25 27 28 29 29 30 30 30 31 31 31 32 32 33 34 34 35 35 35 34 33 33 34 37 39 42 44 46 48 49 50 51 52 54 55 55 56 56 55 54 52 50 49 48 48 50 51 53 54 54 54 53 52 51 50
39 39 39 39 39 40 40 40 39 39 38 38 38 37 37 37 36 36 35 34 33 33 32 31 31 30 30 29 28 28 27 26 27 28 29 30 30 31 31 31 32 32 33 33 34 35 36 36 37 38 38 37 37 37 38 41 43 45 47 50 52 53 55 56 57 58 58 58 57 55 54 52 51 49 48 49 50 51 53 54 54 53 52 52 51 51
40 40 40 40 40 40 40 40 40 39 39 39 38 38 38 37 37 36 36 35 34 33 33 32 31 31 30 29 29 29 27 27 27 28 30 30 31 31 32 32 32 33 34 34 35 36 37 38 39 40 41 42 42 41 41 43 45 47 49 52 54 56 58 60 60 61 61 59 58 56 54 53 51 50 49 49 50 51 52 53 53 53 52 51 51 51
41 41 41 41 41 40 40 40 40 39 39 39 39 39 38 38 38 37 36 36 35 34 33 33 32 31 30 30 29 29 28 27 28 29 30 31 32 32 33 33 33 34 35 36 37 38 39 40 41 42 43 45 46 46 45 46 47 49 52 54 57 59 61 62 63 63 62 61 59 57 55 53 52 50 49 49 50 51 52 52 52 52 51 51 51 51
42 42 42 41 41 41 41 40 40 39 39 39 39 39 39 38 38 37 37 36 36 35 34 34 33 32 31 30 30 29 28 28 28 29 30 32 32 33 34 34 34 35 36 37 38 39 40 42 43 45 46 47 48 49 50 50 52 53 55 57 59 61 63 65 65 64 63 61 59 57 55 53 52 50 50 50 50 51 51 51 51 50 50 50 50 51
43 42 42 42 41 41 41 40 40 40 40 39 39 39 39 38 38 38 37 37 37 36 36 35 34 33 32 31 30 29 29 29 29 30 31 32 33 34 34 35 36 36 37 38 40 41 42 44 45 47 49 50 51 52 53 54 56 58 59 60 61 63 65 67 67 66 64 62 60 57 54 53 52 51 50 50 51 51 51 50 49 49 49 49 50 52
43 43 43 42 42 41 41 41 40 40 40 40 40 39 39 39 38 38 38 38 38 37 36 36 35 34 33 32 31 30 30 29 30 30 31 32 33 34 35 36 37 38 38 40 41 43 44 45 48 50 52 54 55 55 56 57 59 61 64 65 66 66 66 67 67 65 64 63 60 57 54 52 52 51 51 51 51 51 51 50 49 48 48 49 52 54
44 43 43 43 42 42 41 41 41 41 41 40 40 39 39 39 39 39 39 39 39 39 38 37 36 35 34 33 32 31 31 31 31 31 32 33 34 35 36 37 38 39 40 41 42 44 45 47 50 52 55 57 58 59 59 60 62 65 67 69 70 70 69 68 66 65 63 62 60 57 54 52 51 51 51 51 51 50 50 50 49 48 48 50 53 56
44 44 43 43 42 42 42 42 42 41 41 40 40 40 40 40 40 40 40 39 39 39 38 38 37 36 36 35 33 33 32 32 32 32 33 33 34 35 37 38 39 40 41 42 43 45 47 49 52 54 57 60 61 61 62 63 65 67 70 72 73 72 70 68 66 64 62 61 59 56 53 50 49 49 49 49 48 48 49 48 48 49 50 52 55 57
45 44 44 43 43 42 42 42 42 42 41 41 41 41 41 41 41 41 41 40 40 40 39 39 39 38 38 36 35 33 32 32 32 33 33 34 35 36 37 38 39 40 41 43 44 46 48 51 53 56 59 62 63 64 65 66 67 68 70 73 74 74 72 68 65 63 60 59 57 54 50 48 46 46 46 46 46 46 47 47 48 49 51 54 56 58
45 44 44 43 43 43 43 43 43 43 43 43 43 42 42 42 42 42 41 41 41 41 41 41 41 40 40 38 37 35 33 33 33 33 34 35 35 37 37 38 39 41 42 44 45 47 49 52 55 58 61 63 65 66 67 69 69 70 71 72 74 74 73 70 66 62 60 58 56 53 49 47 45 45 45 46 46 47 47 47 48 49 52 54 57 60
45 45 45 45 44 44 44 44 44 44 44 43 43 43 42 43 43 43 42 42 42 42 42 42 42 42 41 40 39 37 35 33 33 33 34 35 36 37 37 38 39 41 42 44 46 48 50 53 56 59 63 65 67 68 69 70 71 71 71 72 73 74 73 70 67 63 60 59 56 53 50 48 48 48 49 49 49 49 48 49 49 50 52 54 57 61
46 46 46 46 46 46 45 45 44 44 43 43 43 43 43 43 43 43 43 43 42 42 43 43 43 43 43 42 41 39 37 35 34 34 34 35 36 37 38 39 40 41 43 45 47 49 52 55 58 61 64 66 68 69 70 72 72 72 71 71 71 72 71 69 67 64 62 60 57 54 51 51 52 53 55 54 52 51 50 50 51 52 53 55 58 61
48 48 48 47 47 46 46 45 45 44 43 43 43 43 43 43 44 43 43 43 43 43 43 44 44 44 44 44 43 41 39 38 36 35 35 35 36 37 38 39 40 42 44 46 48 51 54 56 59 62 65 67 68 69 71 72 73 73 72 71 70 70 70 69 67 65 63 60 57 55 52 52 54 55 57 56 54 52 51 51 52 53 53 55 58 62
50 50 49 48 48 47 46 46 45 44 44 43 43 44 44 44 44 44 43 43 43 43 44 44 45 45 45 45 45 44 42 40 39 37 36 36 36 37 38 39 41 43 45 47 50 52 54 57 60 62 65 67 69 70 71 73 73 73 72 71 70 69 69 69 68 66 64 60 56 53 51 52 54 56 58 57 55 53 51 52 52 53 54 56 60 63
50 50 50 49 49 48 47 46 45 45 44 44 43 44 44 44 44 44 44 44 44 44 44 44 45 46 46 46 46 46 45 43 42 40 39 38 38 38 38 40 42 44 46 48 51 53 54 57 59 62 65 67 69 71 72 73 74 73 72 70 70 69 69 68 68 66 64 59 54 51 49 51 53 56 58 57 55 53 51 52 53 54 54 57 61 64
51 51 51 50 50 49 48 47 47 46 45 45 44 44 45 45 45 44 44 44 44 44 44 45 45 46 46 47 47 47 47 46 44 43 42 41 40 40 40 41 43 45 48 50 52 54 56 57 59 61 64 68 70 73 75 75 75 74 72 71 70 69 69 67 66 63 60 56 52 49 48 49 52 54 57 56 55 53 52 54 54 54 54 58 62 66
53 52 52 51 51 50 49 48 47 47 46 45 45 45 45 45 45 45 44 44 44 44 44 44 45 46 46 47 47 48 48 47 46 45 44 43 42 42 42 42 44 46 49 52 53 55 57 58 59 61 64 68 72 75 77 78 77 75 73 71 70 69 67 65 62 59 56 53 50 48 48 49 51 53 55 56 55 54 54 55 55 54 54 58 63 67